Weather History for Saskatoon, SK

Change the Weather History Date:

Friday, February 15, 2013

  Actual Average Record
Temperature  
Mean Temperature 10 °F -  
Max Temperature 23 °F 23 °F 39 °F (2002)
Min Temperature -4 °F 4 °F -20 °F (2009)
Degree Days  
Heating Degree Days 56    
Moisture  
Dew Point 5 °F    
Average Humidity 83    
Maximum Humidity 92    
Minimum Humidity 73    
Precipitation  
Precipitation 0.00 in 0.02 in - ()
Sea Level Pressure  
Sea Level Pressure 30.28 in    
Wind  
Wind Speed 7 mph ()    
Max Wind Speed 15 mph    
Max Gust Speed -    
Visibility 9.0 miles    
Events Fog , Snow    
Averages and records for this station are not official NWS values.
T = Trace of Precipitation, MM = Missing Value Source: Averaged Metar Reports

Daily Weather History Graph

Daily Weather History Graph

Search for Another Location

Airport:

Trip Planner

Search our weather history database for the weather conditions in past years. The results will help you decide how hot, cold, wet, or windy it might be!

Date:

Astronomy

Feb. 15, 2013 Rise Set
Actual Time 8:21 AM CST 6:21 PM CST
Civil Twilight 7:46 AM CST 6:56 PM CST
Nautical Twilight 7:06 AM CST 7:35 PM CST
Astronomical Twilight 6:27 AM CST 8:15 PM CST
Moon 10:10 AM CST (2/15) 12:12 AM CST (2/15)
Length of Visible Light 11h 09m
Length of Day
9h 59m
Waxing Crescent, 30% of the Moon is Illuminated
Feb 15
Waxing Crescent
Feb 17
First Quarter
Feb 25
Full
Mar 4
Last Quarter
Mar 11
New

Hourly Weather History & Observations

Time (CST) Temp. Windchill Dew Point Humidity Pressure Visibility Wind Dir Wind Speed Gust Speed Precip Events Conditions
12:00 AM -0.4 °F -8.3 °F -4.0 °F 85% 30.44 in 15.0 mi SW 3.5 mph - N/A Fog Patches of Fog
1:00 AM -2.2 °F -14.2 °F -5.8 °F 85% 30.46 in 10.0 mi SW 5.8 mph - N/A Fog Patches of Fog
2:00 AM -2.2 °F -12.5 °F -5.8 °F 85% 30.45 in 0.5 mi WSW 4.6 mph - N/A Fog Light Freezing Fog
3:00 AM -4.0 °F -17.8 °F -7.6 °F 85% 30.46 in 0.5 mi SW 6.9 mph - N/A Fog Light Freezing Fog
4:00 AM -4.0 °F -14.6 °F -7.6 °F 85% 30.46 in 0.5 mi SW 4.6 mph - N/A Fog Light Freezing Fog
4:36 AM -4.0 °F -16.3 °F -7.6 °F 85% 30.46 in 1.0 mi SW 5.8 mph - N/A   Overcast
5:00 AM -4.0 °F -14.6 °F -7.6 °F 85% 30.47 in 3.0 mi SW 4.6 mph - N/A   Overcast
6:00 AM -4.0 °F -14.6 °F -9.4 °F 78% 30.47 in 2.0 mi SW 4.6 mph - N/A   Overcast
7:00 AM -4.0 °F -14.6 °F -7.6 °F 85% 30.46 in 4.0 mi South 4.6 mph - N/A   Mostly Cloudy
8:00 AM -4.0 °F -17.8 °F -7.6 °F 85% 30.44 in 4.0 mi South 6.9 mph - N/A   Mostly Cloudy
9:00 AM -2.2 °F -18.9 °F -5.8 °F 85% 30.43 in 3.0 mi SSW 10.4 mph - N/A   Overcast
9:45 AM -2.2 °F -15.6 °F -5.8 °F 85% 30.41 in 5.0 mi South 6.9 mph - N/A   Overcast
10:00 AM -0.4 °F -12.0 °F -4.0 °F 85% 30.41 in 5.0 mi South 5.8 mph - N/A   Overcast
11:00 AM 3.2 °F -11.3 °F -0.4 °F 85% 30.39 in 8.0 mi South 9.2 mph - N/A   Overcast
12:00 PM 6.8 °F -7.8 °F 5.0 °F 92% 30.35 in 10.0 mi South 10.4 mph - N/A   Overcast
1:00 PM 12.2 °F -1.0 °F 8.6 °F 85% 30.33 in 15.0 mi SSW 10.4 mph - N/A   Overcast
2:00 PM 15.8 °F 2.1 °F 10.4 °F 79% 30.28 in 15.0 mi SSW 12.7 mph - N/A   Overcast
3:00 PM 17.6 °F 5.7 °F 10.4 °F 73% 30.23 in 15.0 mi South 10.4 mph - N/A   Overcast
4:00 PM 19.4 °F 7.9 °F 12.2 °F 74% 30.19 in 15.0 mi South 10.4 mph - N/A   Overcast
4:55 PM 19.4 °F 7.2 °F 14.0 °F 80% 30.16 in 2.0 mi South 11.5 mph - N/A Snow Light Snow
5:00 PM 19.4 °F 7.2 °F 14.0 °F 80% 30.16 in 3.0 mi South 11.5 mph - N/A Snow Light Snow
5:34 PM 19.4 °F 6.6 °F 15.8 °F 86% 30.12 in 15.0 mi SSE 12.7 mph - N/A Snow Light Snow
6:00 PM 19.4 °F 7.2 °F 15.8 °F 86% 30.12 in 15.0 mi South 11.5 mph - N/A Snow Light Snow
6:33 PM 21.2 °F 8.3 °F 15.8 °F 80% 30.10 in 15.0 mi South 13.8 mph - N/A Snow Low Drifting Snow
7:00 PM 21.2 °F 8.3 °F 15.8 °F 80% 30.09 in 15.0 mi South 13.8 mph - N/A Snow Low Drifting Snow
7:11 PM 21.2 °F 7.8 °F 15.8 °F 80% 30.08 in 8.0 mi South 15.0 mph - N/A Snow Light Snow
7:51 PM 23.0 °F 10.6 °F 17.6 °F 80% 30.06 in 15.0 mi South 13.8 mph - N/A Snow Low Drifting Snow
8:00 PM 23.0 °F 10.6 °F 17.6 °F 80% 30.06 in 15.0 mi South 13.8 mph - N/A Snow Low Drifting Snow
9:00 PM 23.0 °F 12.4 °F 19.4 °F 86% 30.02 in 15.0 mi SSW 10.4 mph - N/A Snow Low Drifting Snow
10:00 PM 23.0 °F 13.1 °F 19.4 °F 86% 30.01 in 15.0 mi SW 9.2 mph - N/A   Overcast
11:00 PM 23.0 °F 13.1 °F 19.4 °F 86% 30.00 in 15.0 mi SW 9.2 mph - N/A   Mostly Cloudy